Location: Helsinki
(60.1699°N, 24.9384°E)
Time: 23:18:19
(UTC+02:00)

Altair - Pass Details

Date: 29 October 2020
Orbit: 1502 x 1682 km, 47.2° (Epoch: 25 November)

Event Time Altitude Azimuth Distance (km) Brightness Sun altitude
Rises 09:36:19 0° 266° (W) 4,718 9.7 10.5°
Reaches altitude 10° 09:39:41 10° 257° (WSW) 3,758 9.4 10.7°
Maximum altitude 09:47:51 34° 198° (SSW) 2,432 9.2 11.3°
Drops below altitude 10° 09:56:16 10° 139° (SE) 3,876 12.2 11.9°
Sets 09:59:49 0° 131° (SE) 4,884 11.7 12.1°
